This is the latest recevied weather packets stored in our database for station/object K6POO-1. If no packets are shown the sender has not sent any weather packets the latest 10 day(s).
| Time | Temp. | Humidity | Pressure | Rain* | Wind** | Luminosity | Snow |
|---|---|---|---|---|---|---|---|
| 1778098971 | 19.44° C | 68% | 1020 hPa | 0 mm | - | 956 W/m² | - |
| 1778098668 | 19.44° C | 65% | 1020.1 hPa | 0 mm | - | 958 W/m² | - |
| 1778098364 | 20° C | 65% | 1020.2 hPa | 0 mm | - | 961 W/m² | - |
| 1778098062 | 20° C | 64% | 1020.3 hPa | 0 mm | - | 966 W/m² | - |
| 1778097758 | 19.44° C | 66% | 1020.5 hPa | 0 mm | - | 970 W/m² | - |
| 1778097454 | 19.44° C | 66% | 1020.4 hPa | 0 mm | - | 969 W/m² | - |
| 1778097151 | 19.44° C | 66% | 1020.5 hPa | 0 mm | - | 970 W/m² | - |
| 1778096848 | 20.56° C | 63% | 1020.5 hPa | 0 mm | - | 970 W/m² | - |
| 1778096545 | 20° C | 65% | 1020.4 hPa | 0 mm | - | 975 W/m² | - |
| 1778096243 | 19.44° C | 65% | 1020.6 hPa | 0 mm | - | 974 W/m² | - |
| 1778095939 | 18.89° C | 66% | 1020.5 hPa | 0 mm | - | 973 W/m² | - |
| 1778095635 | 18.89° C | 66% | 1020.7 hPa | 0 mm | - | 971 W/m² | - |
| 1778095332 | 19.44° C | 65% | 1020.7 hPa | 0 mm | - | 971 W/m² | - |
| 1778095029 | 19.44° C | 65% | 1020.7 hPa | 0 mm | - | 969 W/m² | - |
| 1778094725 | 19.44° C | 66% | 1020.7 hPa | 0 mm | - | 970 W/m² | - |
| 1778094423 | 18.89° C | 67% | 1020.6 hPa | 0 mm | - | 966 W/m² | - |
| 1778094113 | 18.89° C | 67% | 1020.8 hPa | 0 mm | - | 960 W/m² | - |
| 1778093810 | 18.33° C | 67% | 1020.9 hPa | 0 mm | - | 960 W/m² | - |
| 1778093506 | 18.33° C | 68% | 1020.8 hPa | 0 mm | - | 958 W/m² | - |
| 1778093199 | 18.33° C | 67% | 1020.8 hPa | 0 mm | - | 951 W/m² | - |
| 1778092896 | 18.33° C | 67% | 1020.6 hPa | 0 mm | - | 945 W/m² | - |
| 1778092592 | 18.33° C | 68% | 1020.9 hPa | 0 mm | - | 1020 W/m² | - |
| 1778092288 | 17.78° C | 69% | 1020.9 hPa | 0 mm | - | 1020 W/m² | - |
| 1778091986 | 18.33° C | 68% | 1020.8 hPa | 0 mm | - | 779 W/m² | - |
| 1778091683 | 17.78° C | 70% | 1020.8 hPa | 0 mm | - | 975 W/m² | - |
* Rain latest hour (hover to see other rain measurements)
** Current wind speed in m/s (hover to see current wind gust speed)